DECAYED
Showing default

DRAGON CRS-33, 65304 (Decayed)

Orbit data source: Space-Track

DRAGON CRS-33, 65304 was a payload satellite owned by SpaceX (US) in LEO that was launched on Sun, 24 Aug 2025 UTC via an FALCON 9 launch vehicle from the Air Force Eastern Test Range (AFETR). Payload-class satellites include a variety of spacecraft equipped with specific instruments for various scientific and technological missions. These include communications satellites like Starlink; space stations such as the ISS; scientific satellites like the Hubble; Earth observation satellites from companies like Planet Labs, Umbra, and HawkEye 360; GPS; miniature CubeSats for education and research; and military/defense satellites.

Loading next visibility...
Identifier
65304, 2025-186A
Orbit
Decayed
Country
Flag of USUS
Related business
Manufacturer
SpaceX
Mission
Decayed Commercial Spaceship
Bus & Motor
DRAGON CM, Unknown motor
Mass
~15,600 kg wet, ~9,000 kg dry
Launch date (UTC)
2025-08-24 (10 months ago)
Launch vehicle
FALCON 9
Launch site
Air Force Eastern Test Range (AFETR)
Object type
Payload
Rocket body
Debris
Shape & HBR
Trunc Cone + Cyl + 2 Fin, 14.5 m
Radar Cross Section
36.564 m²

Expand to show TLE details & history
Last TLE update: 4 months ago

TLE from 4 months ago
0 DRAGON CRS-33
1 65304U 25186A   26059.21983326  .00010172  00000-0  19675-3 0  9998
2 65304  51.6325 119.1716 0008306 141.5469 218.6112 15.48355484   115
Epoch: 2026-02-28T05:16Z
TLE epoch observation values (Epoch: 2026-02-28T05:16:33.593Z)
Latitude
-0.00006°
Longitude
-118.0135°
Altitude
426.691 km
Speed
7.654 km/s
True Right ascension
07h 56m 41s
True Declination
0° 00' 00"
Sunlit
Object was in full shadow at epoch
Visualization orbit readout
Latitude
Unknown
Longitude
Unknown
Altitude
Unknown
Speed
Unknown
Apparent Right ascension
Unknown
Apparent Declination
Unknown
Sunlit
N/A
Visualization observer readout
Local Sidereal Time
10:19:06
Azimuth
Unknown
Elevation
Unknown
Doppler factor
Unknown
Orbital elements
Apogee altitude
427.693 km
Perigee altitude
416.397 km
Semi-major axis
6,800.182 km
Eccentricity
0.00083
Inclination
51.6325°
RAAN
119.1716°
Arg. of periapsis
141.5469°
True anomaly
218.55185°
Mean anomaly
218.6112°
Eccentric anomaly
218.58152°
Mean motion
3.87046 °/min
Orbital period
93.01 mins
BSTAR
0.00019675
Loading maneuver chart data...
Computing Atmospheric mass density...
Loading historical data...
Loading historical data...
Loading historical data...
Loading historical data...
Loading historical data...
Loading historical data...
Loading historical data...
Other satellites on launch #186 in the year 2025 (2025-08-24 UTC)

Documentation

Showing up to 5 results
|